Back to catalog

SL-12 R/B(2)

AliveGEO
NORAD 21135·ROCKET BODY·🇷🇺 Russia

Launched Feb 28, 1991 from Baikonur Cosmodrome

Loading…

TLE

FreshSource: Space-Track

Epoch: Sep 1, 2026, 19:49 UTC

1 21135U 91014D   26244.82607830 -.00000141  00000-0  00000-0 0  9996
2 21135  11.7796 330.8044 0024417 151.8889 206.5087  1.03432186134133

Track SL-12 R/B(2) in real time with AllMySat

Download on the App Store